• MPC Preparation (Info)

  • MPEC 2019-C34 : 2019 CT

    The following Minor Planet Electronic Circular may be linked-to from your own Web pages, but must not otherwise be redistributed electronically.

    A form allowing access to any MPEC is at the bottom of this page.


    Read MPEC 2019-C33 Read MPEC 2019-C35


    M.P.E.C. 2019-C34                                Issued 2019 Feb. 7, 03:39 UT
    
         The Minor Planet Electronic Circulars contain information on unusual
             minor planets and routine data on comets.  They are published
        on behalf of Division F of the International Astronomical Union by the
              Minor Planet Center, Smithsonian Astrophysical Observatory,
                              Cambridge, MA 02138, U.S.A.
    
                 Prepared using the Tamkin Foundation Computer Network
    
                                  MPC@CFA.HARVARD.EDU
                URL https://www.minorplanetcenter.net/    ISSN 1523-6714
    
                                        2019 CT
    
    Observations:
         K19C00T  C2019 01 08.39348608 56 48.787+08 19 42.06         21.7 GVEC034F51
         K19C00T  C2019 01 08.40454308 56 50.403+08 19 32.39         22.2 GVEC034F51
         K19C00T  C2019 01 08.41561508 56 52.023+08 19 22.48         21.7 GVEC034F51
         K19C00T  C2019 01 16.56770909 19 48.477+06 13 51.42         21.1 GVEC034F51
         K19C00T  C2019 01 16.57983509 19 50.467+06 13 39.85         21.3 GVEC034F51
         K19C00T* C2019 02 04.48176 10 25 19.536+01 26 27.16         21.3 wUEC034F52
         K19C00T  C2019 02 04.49410 10 25 22.054+01 26 17.13         21.4 wUEC034F52
         K19C00T  C2019 02 04.50638 10 25 24.565+01 26 07.34         21.3 wUEC034F52
         K19C00T |C2019 02 05.18926 10 28 01.90 +01 17 52.4          20.7 GUEC034807
         K19C00T |C2019 02 05.19227 10 28 02.53 +01 17 50.0          20.7 GUEC034807
         K19C00T |C2019 02 05.19527 10 28 03.16 +01 17 47.7          20.8 GUEC034807
         K19C00T KC2019 02 05.31617 10 28 30.29 +01 15 15.3                oEC034711
         K19C00T KC2019 02 05.31973 10 28 30.96 +01 15 12.1                oEC034711
         K19C00T KC2019 02 05.32328 10 28 31.70 +01 15 09.5                oEC034711
         K19C00T ^C2019 02 05.49705010 29 10.745+01 13 02.87         20.75GVEC034568
         K19C00T ^C2019 02 05.49799910 29 10.940+01 13 02.14         20.72GVEC034568
         K19C00T ^C2019 02 05.49894710 29 11.134+01 13 01.38         20.69GVEC034568
         K19C00T KC2019 02 05.97098910 31 00.11 +01 06 33.3          20.5 GVEC034L01
         K19C00T KC2019 02 05.97449310 31 00.86 +01 06 30.8          20.6 GVEC034L01
         K19C00T KC2019 02 05.97799310 31 01.59 +01 06 27.9          20.6 GVEC034L01
         K19C00T KC2019 02 06.99715 10 34 54.53 +00 53 32.2          20.2 RoEC034K88
         K19C00T KC2019 02 07.00429 10 34 56.07 +00 53 27.0          19.8 RoEC034K88
         K19C00T KC2019 02 07.01143 10 34 57.58 +00 53 21.8          20.6 RoEC034K88
    
    Observer details:
    568 Mauna Kea.  Observers R. Wainscoat, L. Wells, S. Prunet.  Measurers
        R. Weryk, R. Wainscoat.  3.6-m Canada-France-Hawaii Telescope + CCD.
    711 McDonald Observatory, Fort Davis.  Observer J. G. Ries.  2.1-m reflector
        + CCD + focal reducer.
    807 Cerro Tololo Observatory, La Serena.  Observers T. Linder, R. Holmes.
        1.00-m f/10.0 astrograph + CCD.
    F51 Pan-STARRS 1, Haleakala.  Observers J. Bulger, K. Chambers, T. Lowe,
        E. Magnier, A. Schultz, M. Willman.  Measurers S. Chastel, M. Huber,
        Y. Ramanjooloo, R. Wainscoat, R. Weryk.  1.8-m Ritchey-Chretien + CCD.
    F52 Pan-STARRS 2, Haleakala.  Observers J. Bulger, T. Dukes, T. Lowe,
        A. Schultz, M. Willman.  Measurers K. Chambers, S. Chastel, L. Denneau,
        J. Fairlamb, H. Flewelling, M. Huber, C.-C. Lin, E. Magnier,
        Y. Ramanjooloo, R. Wainscoat, R. Weryk.  1.8-m Ritchey-Chretien + CCD.
    K88 GINOP-KHK, Piszkesteto.  Observer K. Sarneczky.  1.02-m
        Ritchey-Chretien + CCD.
    L01 Visnjan Observatory, Tican.  Observers K. Korlevic, G. Kervina,
        F. Valentine.  Measurer K. Korlevic.  1.0-m f/2.9 reflector + CCD.
    
    Orbital elements:
    2019 CT                                                  Earth MOID = 0.1367 AU
    Epoch 2019 Apr. 27.0 TT = JDT 2458600.5                 MPC
    M  24.25148              (2000.0)            P               Q
    n   0.33716901     Peri.  335.55993     -0.84412236     -0.53613047
    a   2.0444239      Node   172.01466     +0.49724557     -0.78607918
    e   0.4502512      Incl.    1.91536     +0.20051006     -0.30764206
    P   2.92           H   23.8           G   0.15           U   5
    Residuals in seconds of arc
    190108 F51  0.0   0.0     190205 807  0.2-  0.2-    190205 568  0.1-  0.2-
    190108 F51  0.0   0.0     190205 807  0.2-  0.3-    190205 L01  0.0   0.1-
    190108 F51  0.1+  0.1-    190205 807  0.1-  0.2-    190205 L01  0.1+  0.1+
    190116 F51  0.1+  0.1+    190205 711  1.2+  0.3+    190205 L01  0.2-  0.1-
    190116 F51  0.1-  0.1+    190205 711  0.1+  0.1-    190206 K88  0.2-  0.3+
    190204 F52  0.2+  0.0     190205 711  0.2+  0.1+    190207 K88  0.1+  0.5+
    190204 F52  0.0   0.1-    190205 568  0.1-  0.2-    190207 K88  0.1-  0.6+
    190204 F52  0.2-  0.0     190205 568  0.1-  0.2-
    
    Ephemeris:
    2019 CT                  a,e,i = 2.04, 0.45, 2                   q = 1.1239
    Date    TT    R. A. (2000) Decl.     Delta      r     Elong.  Phase     V
    2019 01 08    08 55 45.1 +08 25 46   0.2314  1.1926   151.9    22.8    22.1
    ...
    2019 01 23    09 40 18.8 +04 32 35   0.1791  1.1490   155.1    21.2    21.4
    ...
    2019 01 31    10 08 32.1 +02 29 50   0.1612  1.1342   155.9    20.8    21.1
    ...
    2019 02 06    10 31 05.7 +01 06 52   0.1523  1.1273   156.4    20.5    21.0
    2019 02 07    10 34 54.9 +00 54 13   0.1512  1.1265   156.5    20.4    21.0
    2019 02 08    10 38 44.4 +00 41 57   0.1502  1.1258   156.6    20.4    21.0
    ...
    2019 02 14    11 01 33.7 -00 22 20   0.1464  1.1239   157.2    19.9    20.9
    ...
    2019 02 22    11 30 15.6 -01 20 32   0.1469  1.1272   158.7    18.6    20.8
    ...
    2019 03 09    12 11 54.6 -01 47 34   0.1635  1.1510   164.4    13.4    20.9
    
    A. U. Tomatic                (C) Copyright 2019 MPC           M.P.E.C. 2019-C34
    

    Read MPEC 2019-C33 Read MPEC 2019-C35


    MPEC number:

    Enter an MPEC number in one of the following forms:

    • 1997-B01 (the full form)
    • J97B01 (the packed version of the full form)
    • B01 (the abbreviated form)